Weather in Barish

Russia / Ulyanovsk Oblast     53°39′12″N   47°07′04″E
temp.,
°C
wind,
m/s
gust,
m/s
humid.,
%
clouds,
%
prec.,
mm/h
press.,
hPa
HPBL,
m
28 january, thu
thu2801:00−4s71590100 0.0 1020464
04:00−4s71391100 0.0 1018423
07:00−6sse61291100 0.0 1017329
10:00−7sse61191100 0.0 1016343
13:00−6sse61192100 0.0 1016350
16:00−6sse51092100 0.0 1015380
19:00−9sse51195100 0.0 1015344
22:00−8s41195100 0.1 1013410
29 january, fri
fri2901:00−6sse3995100 0.1 1013375
04:00−6sse3996100 0.1 1012359
07:00−5sse4995100 0.1 1011400
10:00−4sse51094100 0.1 1010452
13:00−2s5995100 0.1 1009518
16:00−2s5895100 0.3 1008437
19:00−2ssw3796100 0.2 1008234
22:00−3ssw4996100 0.5 1008329
30 january, sat
sat3001:00−4ssw41093100 0.0 1007269
04:00−6s5119467 0.0 1007245
07:00−6s5119580 0.0 1006343
10:00−3s7149390 0.1 1004622
13:000s91695100 0.8 10021232
16:00−1sw7138183 1.4 1004788
19:00−6sw410926 0.0 1007214
22:00−7ssw4119146 0.0 1009259
31 january, sun
sun3101:00−6ssw4992100 0.0 1009266
04:00−3s51194100 0.0 1008344
07:00+1ssw81498100 0.3 1007733
10:00−1s81682100 0.4 1007679
13:000s101976100 0.0 1006972
16:00−1s112084100 0.3 10041095
19:00−1s111891100 1.1 1001863
22:000ssw101897100 1.8 10001079
1 february, mon
mon101:00−4sw10188576 1.1 1002777
04:00−4wsw8158987 1.1 1008812
07:00−6wsw6139098 0.1 1012509
10:00−8wsw6119399 0.1 1015362
13:00−6sw4891100 0.0 1017289
16:00−4ssw4789100 0.0 1017353
19:00−5sse51089100 0.0 1016256
22:00−3sse81795100 1.8 1012538